Time,TemperatureF,DewpointF,PressureIn,WindDirection,WindDirectionDegrees,WindSpeedMPH,WindSpeedGustMPH,Humidity,HourlyPrecipIn,Conditions,Clouds,dailyrainin,SoftwareType,DateUTC
2013-01-14 00:02:00,20.0,14.0,-100.00,NNW,335,4.0,9.0,75,-99.99,,,-99.99,,2013-01-14 08:02:00,
2013-01-14 00:12:00,21.0,12.0,-100.00,North,350,6.0,14.0,69,-99.99,,,-99.99,,2013-01-14 08:12:00,
2013-01-14 00:22:00,22.0,11.0,-100.00,North,350,4.0,15.0,63,-99.99,,,-99.99,,2013-01-14 08:22:00,
2013-01-14 00:32:00,21.0,10.0,-100.00,NW,320,4.0,12.0,62,-99.99,,,-99.99,,2013-01-14 08:32:00,
2013-01-14 00:52:00,21.0,10.0,-100.00,North,0,6.0,13.0,63,-99.99,,,-99.99,,2013-01-14 08:52:00,
2013-01-14 01:02:00,21.0,10.0,-100.00,North,0,6.0,13.0,63,-99.99,,,-99.99,,2013-01-14 09:02:00,
2013-01-14 01:12:00,21.0,10.0,-100.00,NNW,330,4.0,13.0,62,-99.99,,,-99.99,,2013-01-14 09:12:00,
2013-01-14 01:22:00,21.0,9.0,-100.00,North,0,5.0,8.0,61,-99.99,,,-99.99,,2013-01-14 09:22:00,
2013-01-14 01:33:00,21.0,9.0,-100.00,North,0,8.0,14.0,61,-99.99,,,-99.99,,2013-01-14 09:33:00,
2013-01-14 01:52:00,21.0,9.0,-100.00,North,350,7.0,12.0,60,-99.99,,,-99.99,,2013-01-14 09:52:00,
2013-01-14 02:02:00,21.0,9.0,-100.00,North,350,7.0,12.0,60,-99.99,,,-99.99,,2013-01-14 10:02:00,
2013-01-14 02:22:00,20.0,8.0,-100.00,North,350,3.0,11.0,59,-99.99,,,-99.99,,2013-01-14 10:22:00,
2013-01-14 02:32:00,19.0,9.0,-100.00,North,0,3.0,11.0,65,-99.99,,,-99.99,,2013-01-14 10:32:00,
2013-01-14 02:52:00,16.0,10.0,-100.00,West,270,2.0,5.0,76,-99.99,,,-99.99,,2013-01-14 10:52:00,
2013-01-14 03:02:00,16.0,10.0,-100.00,West,270,2.0,5.0,76,-99.99,,,-99.99,,2013-01-14 11:02:00,
2013-01-14 03:12:00,19.0,11.0,-100.00,North,0,7.0,14.0,68,-99.99,,,-99.99,,2013-01-14 11:12:00,
2013-01-14 03:22:00,18.0,9.0,-100.00,North,350,2.0,9.0,67,-99.99,,,-99.99,,2013-01-14 11:22:00,
2013-01-14 03:32:00,15.0,9.0,-100.00,SW,225,2.0,5.0,77,-99.99,,,-99.99,,2013-01-14 11:32:00,
2013-01-14 03:42:00,15.0,9.0,-100.00,SW,225,2.0,5.0,77,-99.99,,,-99.99,,2013-01-14 11:42:00,
2013-01-14 03:53:00,14.0,10.0,-100.00,SSW,210,1.0,4.0,83,-99.99,,,-99.99,,2013-01-14 11:53:00,
2013-01-14 04:02:00,14.0,10.0,-100.00,SSW,210,1.0,4.0,83,-99.99,,,-99.99,,2013-01-14 12:02:00,
2013-01-14 04:12:00,14.0,11.0,-100.00,West,270,3.0,7.0,87,-99.99,,,-99.99,,2013-01-14 12:12:00,
2013-01-14 04:22:00,15.0,12.0,-100.00,WNW,295,3.0,10.0,87,-99.99,,,-99.99,,2013-01-14 12:22:00,
2013-01-14 04:33:00,16.0,12.0,-100.00,NNW,330,3.0,9.0,85,-99.99,,,-99.99,,2013-01-14 12:33:00,
2013-01-14 04:42:00,16.0,12.0,-100.00,NNW,330,3.0,9.0,85,-99.99,,,-99.99,,2013-01-14 12:42:00,
2013-01-14 04:52:00,14.0,11.0,-100.00,SW,235,2.0,5.0,87,-99.99,,,-99.99,,2013-01-14 12:52:00,
2013-01-14 05:03:00,14.0,11.0,-100.00,SW,235,2.0,5.0,87,-99.99,,,-99.99,,2013-01-14 13:03:00,
2013-01-14 05:12:00,14.0,12.0,-100.00,SW,235,3.0,6.0,91,-99.99,,,-99.99,,2013-01-14 13:12:00,
2013-01-14 05:22:00,13.0,12.0,-100.00,SE,135,1.0,4.0,93,-99.99,,,-99.99,,2013-01-14 13:22:00,
2013-01-14 05:33:00,12.0,11.0,-100.00,SSW,200,0.0,2.0,94,-99.99,,,-99.99,,2013-01-14 13:33:00,
2013-01-14 05:43:00,12.0,11.0,-100.00,SSW,200,0.0,2.0,94,-99.99,,,-99.99,,2013-01-14 13:43:00,
2013-01-14 05:52:00,12.0,11.0,-100.00,WNW,300,1.0,4.0,96,-99.99,,,-99.99,,2013-01-14 13:52:00,
2013-01-14 06:02:00,12.0,11.0,-100.00,WNW,300,1.0,4.0,96,-99.99,,,-99.99,,2013-01-14 14:02:00,
2013-01-14 06:12:00,12.0,12.0,-100.00,WSW,255,2.0,4.0,97,-99.99,,,-99.99,,2013-01-14 14:12:00,
2013-01-14 06:22:00,12.0,12.0,-100.00,SSE,160,2.0,4.0,98,-99.99,,,-99.99,,2013-01-14 14:22:00,
2013-01-14 06:33:00,13.0,13.0,-100.00,SE,125,2.0,6.0,99,-99.99,,,-99.99,,2013-01-14 14:33:00,
2013-01-14 06:52:00,13.0,13.0,-100.00,SE,145,0.0,5.0,99,-99.99,,,-99.99,,2013-01-14 14:52:00,
2013-01-14 07:02:00,13.0,13.0,-100.00,SE,145,0.0,5.0,99,-99.99,,,-99.99,,2013-01-14 15:02:00,
2013-01-14 07:12:00,12.0,12.0,-100.00,NNW,330,1.0,3.0,99,-99.99,,,-99.99,,2013-01-14 15:12:00,
2013-01-14 07:23:00,11.0,11.0,-100.00,West,260,1.0,3.0,99,-99.99,,,-99.99,,2013-01-14 15:23:00,
2013-01-14 07:33:00,12.0,12.0,-100.00,NW,305,3.0,9.0,99,-99.99,,,-99.99,,2013-01-14 15:33:00,
2013-01-14 07:53:00,12.0,12.0,-100.00,NW,315,5.0,10.0,99,-99.99,,,-99.99,,2013-01-14 15:53:00,
2013-01-14 08:02:00,12.0,12.0,-100.00,NW,315,5.0,10.0,99,-99.99,,,-99.99,,2013-01-14 16:02:00,
2013-01-14 08:12:00,12.0,12.0,-100.00,NW,305,2.0,6.0,99,-99.99,,,-99.99,,2013-01-14 16:12:00,
2013-01-14 08:23:00,13.0,13.0,-100.00,West,270,4.0,9.0,99,-99.99,,,-99.99,,2013-01-14 16:23:00,
2013-01-14 08:33:00,14.0,14.0,-100.00,NNW,340,1.0,9.0,99,-99.99,,,-99.99,,2013-01-14 16:33:00,
2013-01-14 08:52:00,15.0,13.0,-100.00,North,350,4.0,7.0,94,-99.99,,,-99.99,,2013-01-14 16:52:00,
2013-01-14 09:02:00,15.0,13.0,-100.00,North,350,4.0,7.0,94,-99.99,,,-99.99,,2013-01-14 17:02:00,
2013-01-14 09:12:00,15.0,14.0,-100.00,NW,305,2.0,6.0,93,-99.99,,,-99.99,,2013-01-14 17:12:00,
2013-01-14 09:22:00,16.0,13.0,-100.00,WNW,300,4.0,9.0,89,-99.99,,,-99.99,,2013-01-14 17:22:00,
2013-01-14 09:33:00,17.0,13.0,-100.00,WNW,290,4.0,12.0,83,-99.99,,,-99.99,,2013-01-14 17:33:00,
2013-01-14 09:43:00,17.0,13.0,-100.00,WNW,290,4.0,12.0,83,-99.99,,,-99.99,,2013-01-14 17:43:00,
2013-01-14 09:53:00,18.0,13.0,-100.00,WNW,285,4.0,8.0,79,-99.99,,,-99.99,,2013-01-14 17:53:00,
2013-01-14 10:02:00,18.0,13.0,-100.00,WNW,285,4.0,8.0,79,-99.99,,,-99.99,,2013-01-14 18:02:00,
2013-01-14 10:12:00,19.0,13.0,-100.00,NW,310,5.0,10.0,77,-99.99,,,-99.99,,2013-01-14 18:12:00,
2013-01-14 10:22:00,20.0,12.0,-100.00,WNW,300,10.0,17.0,72,-99.99,,,-99.99,,2013-01-14 18:22:00,
2013-01-14 10:33:00,20.0,11.0,-100.00,WNW,295,10.0,21.0,68,-99.99,,,-99.99,,2013-01-14 18:33:00,
2013-01-14 10:42:00,20.0,11.0,-100.00,WNW,295,10.0,21.0,68,-99.99,,,-99.99,,2013-01-14 18:42:00,
2013-01-14 11:02:00,20.0,11.0,-100.00,WNW,290,9.0,18.0,66,-99.99,,,-99.99,,2013-01-14 19:02:00,
2013-01-14 11:12:00,21.0,11.0,-100.00,West,280,4.0,14.0,65,-99.99,,,-99.99,,2013-01-14 19:12:00,
2013-01-14 11:22:00,22.0,12.0,-100.00,NW,315,4.0,13.0,64,-99.99,,,-99.99,,2013-01-14 19:22:00,
2013-01-14 11:33:00,24.0,12.0,-100.00,WNW,295,7.0,14.0,61,-99.99,,,-99.99,,2013-01-14 19:33:00,
2013-01-14 11:42:00,24.0,12.0,-100.00,WNW,295,7.0,14.0,61,-99.99,,,-99.99,,2013-01-14 19:42:00,
2013-01-14 11:52:00,24.0,12.0,-100.00,West,280,6.0,18.0,59,-99.99,,,-99.99,,2013-01-14 19:52:00,
2013-01-14 12:03:00,24.0,12.0,-100.00,West,280,6.0,18.0,59,-99.99,,,-99.99,,2013-01-14 20:03:00,
2013-01-14 12:12:00,24.0,12.0,-100.00,WNW,290,5.0,14.0,59,-99.99,,,-99.99,,2013-01-14 20:12:00,
2013-01-14 12:22:00,25.0,13.0,-100.00,West,265,4.0,17.0,59,-99.99,,,-99.99,,2013-01-14 20:22:00,
2013-01-14 12:33:00,26.0,13.0,-100.00,West,265,7.0,12.0,58,-99.99,,,-99.99,,2013-01-14 20:33:00,
2013-01-14 12:42:00,26.0,13.0,-100.00,West,265,7.0,12.0,58,-99.99,,,-99.99,,2013-01-14 20:42:00,
2013-01-14 12:53:00,26.0,13.0,-100.00,West,265,7.0,12.0,58,-99.99,,,-99.99,,2013-01-14 20:53:00,
2013-01-14 13:02:00,26.0,13.0,-100.00,West,265,7.0,12.0,58,-99.99,,,-99.99,,2013-01-14 21:02:00,
2013-01-14 13:12:00,27.0,13.0,-100.00,WNW,285,4.0,15.0,57,-99.99,,,-99.99,,2013-01-14 21:12:00,
2013-01-14 13:22:00,27.0,14.0,-100.00,WNW,290,9.0,18.0,57,-99.99,,,-99.99,,2013-01-14 21:22:00,
2013-01-14 13:33:00,27.0,14.0,-100.00,WNW,295,7.0,18.0,58,-99.99,,,-99.99,,2013-01-14 21:33:00,
2013-01-14 13:42:00,27.0,14.0,-100.00,WNW,295,7.0,18.0,58,-99.99,,,-99.99,,2013-01-14 21:42:00,
2013-01-14 13:53:00,27.0,14.0,-100.00,WNW,295,7.0,15.0,57,-99.99,,,-99.99,,2013-01-14 21:53:00,
2013-01-14 14:02:00,27.0,14.0,-100.00,WNW,295,7.0,15.0,57,-99.99,,,-99.99,,2013-01-14 22:02:00,
2013-01-14 14:12:00,27.0,14.0,-100.00,WNW,300,6.0,17.0,57,-99.99,,,-99.99,,2013-01-14 22:12:00,
2013-01-14 14:23:00,27.0,13.0,-100.00,NW,325,7.0,17.0,56,-99.99,,,-99.99,,2013-01-14 22:23:00,
2013-01-14 14:32:00,27.0,13.0,-100.00,WNW,295,10.0,21.0,56,-99.99,,,-99.99,,2013-01-14 22:32:00,
2013-01-14 14:52:00,27.0,14.0,-100.00,WNW,300,6.0,20.0,57,-99.99,,,-99.99,,2013-01-14 22:52:00,
2013-01-14 15:02:00,27.0,14.0,-100.00,WNW,300,6.0,20.0,57,-99.99,,,-99.99,,2013-01-14 23:02:00,
2013-01-14 15:12:00,27.0,14.0,-100.00,NW,315,11.0,20.0,57,-99.99,,,-99.99,,2013-01-14 23:12:00,
2013-01-14 15:22:00,27.0,14.0,-100.00,WNW,300,9.0,19.0,57,-99.99,,,-99.99,,2013-01-14 23:22:00,
2013-01-14 15:32:00,27.0,14.0,-100.00,NW,310,7.0,17.0,57,-99.99,,,-99.99,,2013-01-14 23:32:00,
2013-01-14 15:42:00,27.0,14.0,-100.00,NW,310,7.0,17.0,57,-99.99,,,-99.99,,2013-01-14 23:42:00,
2013-01-14 15:52:00,28.0,14.0,-100.00,NW,320,9.0,21.0,57,-99.99,,,-99.99,,2013-01-14 23:52:00,
2013-01-14 16:02:00,28.0,14.0,-100.00,NW,320,9.0,21.0,57,-99.99,,,-99.99,,2013-01-15 00:02:00,
2013-01-14 16:12:00,27.0,14.0,-100.00,NNW,335,8.0,17.0,57,-99.99,,,-99.99,,2013-01-15 00:12:00,
2013-01-14 16:22:00,27.0,14.0,-100.00,NW,310,7.0,14.0,56,-99.99,,,-99.99,,2013-01-15 00:22:00,
2013-01-14 16:32:00,27.0,14.0,-100.00,NW,320,6.0,10.0,57,-99.99,,,-99.99,,2013-01-15 00:32:00,
2013-01-14 16:43:00,27.0,14.0,-100.00,NW,320,6.0,10.0,57,-99.99,,,-99.99,,2013-01-15 00:43:00,
2013-01-14 16:52:00,27.0,13.0,-100.00,NW,315,4.0,12.0,55,-99.99,,,-99.99,,2013-01-15 00:52:00,
2013-01-14 17:02:00,27.0,13.0,-100.00,NW,315,4.0,12.0,55,-99.99,,,-99.99,,2013-01-15 01:02:00,
2013-01-14 17:12:00,27.0,12.0,-100.00,WNW,285,5.0,12.0,53,-99.99,,,-99.99,,2013-01-15 01:12:00,
2013-01-14 17:22:00,27.0,12.0,-100.00,NW,305,3.0,11.0,52,-99.99,,,-99.99,,2013-01-15 01:22:00,
2013-01-14 17:32:00,27.0,12.0,-100.00,NNW,330,5.0,13.0,52,-99.99,,,-99.99,,2013-01-15 01:32:00,
2013-01-14 17:42:00,27.0,12.0,-100.00,NNW,330,5.0,13.0,52,-99.99,,,-99.99,,2013-01-15 01:42:00,
2013-01-14 17:52:00,27.0,11.0,-100.00,NNW,335,5.0,12.0,50,-99.99,,,-99.99,,2013-01-15 01:52:00,
2013-01-14 18:02:00,27.0,11.0,-100.00,NNW,335,5.0,12.0,50,-99.99,,,-99.99,,2013-01-15 02:02:00,
2013-01-14 18:12:00,27.0,10.0,-100.00,WNW,295,6.0,12.0,48,-99.99,,,-99.99,,2013-01-15 02:12:00,
2013-01-14 18:22:00,27.0,10.0,-100.00,NNW,330,7.0,15.0,49,-99.99,,,-99.99,,2013-01-15 02:22:00,
2013-01-14 18:32:00,27.0,11.0,-100.00,NNW,330,8.0,17.0,52,-99.99,,,-99.99,,2013-01-15 02:32:00,
2013-01-14 18:42:00,27.0,11.0,-100.00,NNW,330,8.0,17.0,52,-99.99,,,-99.99,,2013-01-15 02:42:00,
2013-01-14 18:52:00,26.0,12.0,-100.00,WNW,295,7.0,15.0,55,-99.99,,,-99.99,,2013-01-15 02:52:00,
2013-01-14 19:02:00,26.0,12.0,-100.00,WNW,295,7.0,15.0,55,-99.99,,,-99.99,,2013-01-15 03:02:00,
2013-01-14 19:12:00,26.0,12.0,-100.00,NW,315,4.0,14.0,55,-99.99,,,-99.99,,2013-01-15 03:12:00,
2013-01-14 19:22:00,27.0,14.0,-100.00,NW,310,9.0,21.0,58,-99.99,,,-99.99,,2013-01-15 03:22:00,
2013-01-14 19:32:00,27.0,13.0,-100.00,NW,315,10.0,19.0,57,-99.99,,,-99.99,,2013-01-15 03:32:00,
2013-01-14 19:42:00,27.0,13.0,-100.00,NW,315,10.0,19.0,57,-99.99,,,-99.99,,2013-01-15 03:42:00,
2013-01-14 19:52:00,28.0,12.0,-100.00,NW,310,7.0,19.0,51,-99.99,,,-99.99,,2013-01-15 03:52:00,
2013-01-14 20:02:00,28.0,12.0,-100.00,NW,310,7.0,19.0,51,-99.99,,,-99.99,,2013-01-15 04:02:00,
2013-01-14 20:12:00,28.0,13.0,-100.00,West,275,6.0,14.0,52,-99.99,,,-99.99,,2013-01-15 04:12:00,
2013-01-14 20:22:00,27.0,13.0,-100.00,SSE,160,1.0,13.0,55,-99.99,,,-99.99,,2013-01-15 04:22:00,
2013-01-14 20:32:00,24.0,13.0,-100.00,SSE,150,1.0,3.0,63,-99.99,,,-99.99,,2013-01-15 04:32:00,
2013-01-14 20:42:00,24.0,13.0,-100.00,SSE,150,1.0,3.0,63,-99.99,,,-99.99,,2013-01-15 04:42:00,
2013-01-14 20:52:00,22.0,14.0,-100.00,SE,140,1.0,4.0,68,-99.99,,,-99.99,,2013-01-15 04:52:00,
2013-01-14 21:03:00,22.0,14.0,-100.00,SE,140,1.0,4.0,68,-99.99,,,-99.99,,2013-01-15 05:03:00,
2013-01-14 21:12:00,22.0,14.0,-100.00,SE,130,1.0,2.0,73,-99.99,,,-99.99,,2013-01-15 05:12:00,
2013-01-14 21:22:00,22.0,14.0,-100.00,SE,130,1.0,2.0,73,-99.99,,,-99.99,,2013-01-15 05:22:00,
2013-01-14 21:33:00,21.0,16.0,-100.00,SE,130,2.0,6.0,79,-99.99,,,-99.99,,2013-01-15 05:33:00,
2013-01-14 21:42:00,21.0,16.0,-100.00,SE,130,2.0,6.0,79,-99.99,,,-99.99,,2013-01-15 05:42:00,
2013-01-14 21:52:00,22.0,17.0,-100.00,ESE,105,2.0,7.0,78,-99.99,,,-99.99,,2013-01-15 05:52:00,
2013-01-14 22:02:00,22.0,17.0,-100.00,ESE,105,2.0,7.0,78,-99.99,,,-99.99,,2013-01-15 06:02:00,
2013-01-14 22:12:00,22.0,16.0,-100.00,SSE,165,1.0,5.0,77,-99.99,,,-99.99,,2013-01-15 06:12:00,
2013-01-14 22:22:00,22.0,16.0,-100.00,North,0,5.0,14.0,78,-99.99,,,-99.99,,2013-01-15 06:22:00,
2013-01-14 22:32:00,24.0,16.0,-100.00,SE,125,4.0,17.0,71,-99.99,,,-99.99,,2013-01-15 06:32:00,
2013-01-14 22:42:00,24.0,16.0,-100.00,SE,125,4.0,17.0,71,-99.99,,,-99.99,,2013-01-15 06:42:00,
2013-01-14 22:52:00,23.0,15.0,-100.00,SE,140,2.0,3.0,73,-99.99,,,-99.99,,2013-01-15 06:52:00,
2013-01-14 23:02:00,23.0,15.0,-100.00,SE,140,2.0,3.0,73,-99.99,,,-99.99,,2013-01-15 07:02:00,
2013-01-14 23:12:00,22.0,15.0,-100.00,South,185,1.0,4.0,76,-99.99,,,-99.99,,2013-01-15 07:12:00,
2013-01-14 23:22:00,21.0,15.0,-100.00,SSE,150,1.0,4.0,77,-99.99,,,-99.99,,2013-01-15 07:22:00,
2013-01-14 23:32:00,21.0,15.0,-100.00,East,95,1.0,6.0,78,-99.99,,,-99.99,,2013-01-15 07:32:00,
2013-01-14 23:42:00,21.0,15.0,-100.00,East,95,1.0,6.0,78,-99.99,,,-99.99,,2013-01-15 07:42:00,
2013-01-14 23:52:00,20.0,15.0,-100.00,SSE,155,1.0,3.0,80,-99.99,,,-99.99,,2013-01-15 07:52:00,